OSCAR 7 1 07530U 74089B 25260.95444637 -.00000027 00000-0 12506-3 0 9997 2 07530 101.9986 266.3011 0011921 291.6455 139.8223 12.53691581326400 OSCAR 11 (UOSAT 2) 1 14781U 84021B 25260.89681589 .00001455 00000-0 15775-3 0 9998 2 14781 97.7663 225.3538 0008186 17.3452 342.8044 14.89676387216579 OSCAR 19 (LUSAT) 1 20442U 90005G 25260.93390301 .00000122 00000-0 60550-4 0 9994 2 20442 98.9011 270.0398 0010532 286.1086 73.8938 14.33990443863378 EYESAT A 1 22825U 93061C 25260.63737238 .00000084 00000-0 49191-4 0 9992 2 22825 98.7271 322.6466 0008552 172.3893 187.7421 14.30829262668026 ITAMSAT 1 22826U 93061D 25260.62723334 .00000101 00000-0 55113-4 0 9995 2 22826 98.7219 322.5280 0009374 157.4421 202.7176 14.31245657668325 RADIO ROSTO 1 23439U 94085A 25260.92900684 -.00000057 00000-0 -41855-3 0 9990 2 23439 64.8203 23.5211 0147406 55.0711 306.3961 11.27581609265204 JAS 2 1 24278U 96046B 25260.93574241 -.00000015 00000-0 17899-4 0 9993 2 24278 98.5581 141.5525 0350915 82.5657 281.5207 13.53253682436343 TECHSAT 1B 1 25397U 98043D 25260.93585498 .00000084 00000-0 56275-4 0 9997 2 25397 98.9822 242.2010 0000340 328.1364 31.9794 14.24339250412576 ISS (ZARYA) 1 25544U 98067A 25260.83266141 .00008967 00000-0 16284-3 0 9990 2 25544 51.6329 207.8756 0004377 351.2823 8.8089 15.50360820529535 PCSAT 1 26931U 01043C 25260.95780618 .00000159 00000-0 90687-4 0 9997 2 26931 67.0496 228.2992 0007061 275.1057 84.9239 14.31779470251477 SAUDISAT 1C 1 27607U 02058C 25260.50744656 .00001607 00000-0 21355-3 0 9992 2 27607 64.5510 252.0143 0066488 313.0615 46.4935 14.81892450224037 CUTE-1 1 27844U 03031E 25260.59376165 .00000298 00000-0 14858-3 0 9997 2 27844 98.6792 267.5925 0008437 255.8478 104.1764 14.24068842152870 CUBESAT XI 4 1 27848U 03031J 25260.94068674 .00000259 00000-0 13343-3 0 9998 2 27848 98.6823 267.8644 0008321 274.7393 85.2835 14.23393551152648 MOZHAYETS 4 1 27939U 03042A 25260.91123785 .00001096 00000-0 18049-3 0 9991 2 27939 98.3369 72.8566 0012344 55.5672 50.3493 14.72590306175462 CUBESAT XI 5 1 28895U 05043F 25260.90698772 .00001560 00000-0 26030-3 0 9993 2 28895 98.2640 46.6104 0014172 353.6567 6.4458 14.71348428 61695 CUTE-1.7+APD 2 1 32785U 08021C 25260.87551910 .00006225 00000-0 43767-3 0 9992 2 32785 97.7958 232.9015 0008181 225.7298 134.3258 15.05434014944164 SEEDS 1 32791U 08021J 25260.91198254 .00013667 00000-0 61594-3 0 9998 2 32791 97.7367 243.4033 0004578 144.3240 215.8302 15.21161432945739 YUBELEINY 1 32953U 08025A 25261.00069856 .00000002 00000-0 -57113-4 0 9991 2 32953 82.5069 164.7439 0018641 183.3999 176.6957 12.43168081785870 KKS-1 (KISEKI) 1 33499U 09002H 25260.73554675 .00001405 00000-0 18426-3 0 9990 2 33499 98.1125 174.1410 0009636 91.9889 268.2427 14.81919596895828 SWISSCUBE 1 35932U 09051B 25260.65953610 .00001058 00000-0 22306-3 0 9997 2 35932 98.4166 158.7175 0006818 352.9138 7.1965 14.61562941849330 BEESAT 1 35933U 09051C 25260.67508150 .00000890 00000-0 19169-3 0 9991 2 35933 98.4097 158.9070 0005591 9.0787 351.0513 14.60942623849380 ITUPSAT 1 1 35935U 09051E 25260.15789344 .00000821 00000-0 18220-3 0 9993 2 35935 98.4190 157.8386 0008017 15.2830 344.8610 14.59724505848896 XIWANG-1 (HOPE-1) 1 36122U 09072B 25260.86207401 -.00000043 00000-0 38243-5 0 9998 2 36122 100.3595 214.5601 0007895 132.2355 227.9429 13.16428171757174 TISAT 1 1 36799U 10035E 25260.74056265 .00013921 00000-0 66689-3 0 9997 2 36799 98.0520 181.1616 0005492 103.3766 256.8079 15.19052572826167 JUGNU 1 37839U 11058B 25260.06543847 .00000440 00000-0 90541-4 0 9998 2 37839 19.9599 167.5874 0018490 300.1258 87.2353 14.13637783720339 SRMSAT 1 37841U 11058D 25260.13664873 .00000417 00000-0 83020-4 0 9990 2 37841 19.9717 272.0788 0011970 80.2124 340.3760 14.11464788719192 HORYU 2 1 38340U 12025D 25260.77305986 .00003027 00000-0 33334-3 0 9999 2 38340 98.1874 18.6383 0008294 359.6286 0.4922 14.88326477708167 STRAND 1 1 39090U 13009E 25260.95240950 .00000294 00000-0 11368-3 0 9990 2 39090 98.3854 83.0388 0008108 331.9077 28.1672 14.36889756657963 CUBEBUG 1 1 39153U 13018D 25260.96063534 .00004165 00000-0 39132-3 0 9992 2 39153 98.1333 44.8604 0011635 333.1392 26.9224 14.94465309670368 ZACUBE 1 39417U 13066B 25260.84492209 .00005157 00000-0 43760-3 0 9994 2 39417 97.7907 217.4307 0045827 77.3807 283.2534 14.97542124639911 TRITON 1 1 39427U 13066M 25260.98557878 .00003463 00000-0 43536-3 0 9993 2 39427 97.8283 172.2083 0094845 41.2498 319.5830 14.79575543633804 GOMX 1 1 39430U 13066Q 25260.96811535 .00001917 00000-0 30214-3 0 9999 2 39430 97.6720 113.4443 0130437 230.6750 128.2836 14.68007748629959 HUMSAT D 1 39433U 13066T 25260.93374283 .00042304 00000-0 97971-3 0 9991 2 39433 97.5062 259.1010 0013077 111.1672 249.0974 15.42238486644505 CUBEBUG 2 1 39440U 13066AA 25260.85489584 .00003484 00000-0 34917-3 0 9998 2 39440 97.8554 204.7974 0060151 207.5005 152.3026 14.90685871636378 FUNCUBE 1 1 39444U 13066AE 25260.88072824 .00007931 00000-0 57187-3 0 9995 2 39444 97.7927 223.3117 0043086 50.4280 310.0738 15.03665259638658 UWE-3 1 39446U 13066AG 25260.84804919 .00003286 00000-0 30768-3 0 9996 2 39446 97.8316 211.3064 0053317 144.5798 215.8982 14.93691982636873 UNISAT 6 1 40012U 14033C 25260.23910343 .00003450 00000-0 39548-3 0 9992 2 40012 97.7546 53.7601 0046164 246.7428 112.8924 14.85798195605592 DUCHIFAT 1 1 40021U 14033M 25260.62162153 .00023421 00000-0 73761-3 0 9998 2 40021 98.0928 283.9471 0006191 342.9370 17.1661 15.32914148613622 QB50P1 1 40025U 14033R 25260.92399878 .00008791 00000-0 51479-3 0 9996 2 40025 98.0918 249.2479 0012178 78.2699 281.9895 15.12019170611798 OBJECT G 1 40905U 15049G 25261.02863802 .00018768 00000-0 36085-3 0 9997 2 40905 97.4965 287.1144 0009529 131.3479 228.8592 15.47930410554105 LILACSAT 2 1 40908U 15049K 25261.00111056 .00012505 00000-0 30255-3 0 9991 2 40908 97.5030 283.9098 0009930 148.7237 211.4602 15.41222707553683 LQSAT 1 40958U 15057A 25260.98463169 .00000719 00000-0 11052-3 0 9994 2 40958 97.6596 263.1547 0018785 77.3906 282.9404 14.76218134535143 CHUBUSAT 2 1 41338U 16012B 25260.52443520 .00005481 00000-0 26683-3 0 9995 2 41338 30.9994 305.7378 0010157 178.6306 181.4363 15.16751799526924 CHUBUSAT 3 1 41339U 16012C 25260.55072996 .00004535 00000-0 23062-3 0 9991 2 41339 31.0062 309.4967 0010258 174.8572 185.2174 15.15106360526764 PRATHAM 1 41783U 16059A 25260.94740728 .00000801 00000-0 15160-3 0 9995 2 41783 97.8277 265.0225 0031791 8.4699 351.7036 14.66578193479605 ALSAT 1N 1 41789U 16059G 25260.99590755 .00000955 00000-0 17181-3 0 9994 2 41789 97.8057 271.6013 0025717 341.5648 18.4624 14.68567611480046